OM2WX-6 Weather Reports


time (UTC)temp
C
wind
direction
speed
KPH
gust
KPH
rain 1hr
cm
rain 24hr
cm
rain mn
cm
humidity
%
barometer
mb
20260505223944 17 270 0.0 0.0 0.00 0.00 0.00 58 1000.2
20260505223444 17 90 0.0 0.0 0.00 0.00 0.00 57 999.8
20260505222944 17 270 0.0 0.0 0.00 0.00 0.00 57 1001.8
20260505222444 -17 292 0.0 0.0 0.00 0.00 0.00 1001.3
20260505221944 -17 292 0.0 0.0 0.00 0.00 0.00 997.3
20260505221444 17 292 0.0 0.0 0.00 0.00 0.00 57 1000.5
20260505220944 17 292 0.0 0.0 0.00 0.00 0.00 57 1001.8
20260505220444 17 292 0.0 0.0 0.00 0.00 0.00 57 1001.8
20260505215944 17 0 0.0 0.0 0.00 0.00 0.00 56 1001.9
20260505215444 17 0 0.0 0.0 0.00 0.00 0.00 56 1001.8
20260505214944 17 0 0.0 0.0 0.00 0.00 0.00 56 1001.2
20260505214444 17 0 0.0 0.0 0.00 0.00 0.00 56 1000.3
20260505213944 -17 0 0.0 0.0 0.00 0.00 0.00 1001.5
20260505213444 -17 0 0.0 0.0 0.00 0.00 0.00 1001.2
20260505212944 18 0 0.0 0.0 0.00 0.00 0.00 54 996.2
20260505212444 18 0 0.0 0.0 0.00 0.00 0.00 54 999.9
20260505211944 18 0 0.0 0.0 0.00 0.00 0.00 54 999.9
20260505211444 18 270 0.0 0.0 0.00 0.00 0.00 54 1000.4
20260505210944 18 270 0.0 0.0 0.00 0.00 0.00 54 1000.5
20260505210444 18 90 0.0 0.0 0.00 0.00 0.00 54 1000.1
20260505205944 18 22 0.0 0.0 0.00 0.00 0.00 54 1000.3
20260505205444 18 202 0.0 0.0 0.00 0.00 0.00 54 1000.4
20260505204944 18 22 0.0 0.0 0.00 0.00 0.00 53 999.7
20260505204444 18 90 0.0 6.4 0.00 0.00 0.00 53 999.7
20260505203944 18 22 0.0 0.0 0.00 0.00 0.00 53 999.8
20260505203444 18 270 0.0 0.0 0.00 0.00 0.00 53 1000.0
20260505202944 18 90 0.0 0.0 0.00 0.00 0.00 53 1000.1
20260505202444 18 22 0.0 0.0 0.00 0.00 0.00 53 999.9
20260505201944 18 112 0.0 0.0 0.00 0.00 0.00 52 1000.1
20260505201444 18 270 0.0 0.0 0.00 0.00 0.00 52 1000.0
20260505200944 18 270 0.0 1.6 0.00 0.00 0.00 52 1000.6
20260505200444 18 112 0.0 0.0 0.00 0.00 0.00 52 1000.0
20260505195944 18 112 0.0 0.0 0.00 0.00 0.00 52 1000.3
20260505195444 19 90 0.0 6.4 0.00 0.00 0.00 52 1000.1
20260505194944 19 180 0.0 0.0 0.00 0.00 0.00 52 999.7
20260505194444 19 0 0.0 0.0 0.00 0.00 0.00 51 1000.0
20260505193944 19 90 0.0 0.0 0.00 0.00 0.00 51 999.3
20260505193444 19 112 0.0 0.0 0.00 0.00 0.00 51 1000.0
20260505192944 19 22 0.0 0.0 0.00 0.00 0.00 51 1000.3
20260505192444 19 90 0.0 0.0 0.00 0.00 0.00 50 999.8
20260505191944 19 22 0.0 0.0 0.00 0.00 0.00 50 1000.6
20260505191444 20 22 0.0 0.0 0.00 0.00 0.00 50 999.8
20260505190944 20 112 0.0 0.0 0.00 0.00 0.00 49 1000.0
20260505190444 20 22 0.0 0.0 0.00 0.00 0.00 49 1000.1
20260505185944 20 202 0.0 3.2 0.00 0.00 0.00 49 1000.5
20260505185444 20 202 0.0 0.0 0.00 0.00 0.00 49 1000.3
20260505184944 20 180 0.0 0.0 0.00 0.00 0.00 48 1000.4
20260505184444 20 292 0.0 0.0 0.00 0.00 0.00 48 1000.2
20260505183944 20 0 0.0 0.0 0.00 0.00 0.00 47 1000.3
20260505183444 20 22 0.0 0.0 0.00 0.00 0.00 47 1000.1
20260505182944 20 22 0.0 0.0 0.00 0.00 0.00 46 999.7
20260505182444 20 22 0.0 0.0 0.00 0.00 0.00 46 1000.3
20260505181944 20 22 0.0 0.0 0.00 0.00 0.00 45 1000.0
20260505181444 20 22 0.0 0.0 0.00 0.00 0.00 45 1000.1
20260505180944 21 22 0.0 0.0 0.00 0.00 0.00 45 999.6
20260505180444 21 90 0.0 1.6 0.00 0.00 0.00 44 1000.0
20260505175944 21 22 0.0 3.2 0.00 0.00 0.00 44 999.9
20260505175444 21 22 0.0 0.0 0.00 0.00 0.00 44 999.9
20260505174944 21 90 0.0 1.6 0.00 0.00 0.00 43 1000.1
20260505174444 21 202 0.0 0.0 0.00 0.00 0.00 43 1000.1
20260505173944 21 0 0.0 0.0 0.00 0.00 0.00 43 1000.2
20260505173444 21 180 0.0 0.0 0.00 0.00 0.00 43 1000.5
20260505172944 21 22 0.0 3.2 0.00 0.00 0.00 43 1000.5
20260505172445 21 112 0.0 6.4 0.00 0.00 0.00 43 1000.4
20260505171945 21 270 0.0 0.0 0.00 0.00 0.00 43 1001.0
20260505171445 -17 202 0.0 0.0 0.00 0.00 0.00 1001.5
20260505170945 -17 202 0.0 0.0 0.00 0.00 0.00 1001.1
20260505170445 22 202 0.0 0.0 0.00 0.00 0.00 42 998.2
20260505165945 22 202 0.0 0.0 0.00 0.00 0.00 42 1000.3
20260505165445 22 202 0.0 0.0 0.00 0.00 0.00 42 1000.4
20260505164945 22 22 0.0 0.0 0.00 0.00 0.00 42 1000.2
20260505164445 22 22 0.0 3.2 0.00 0.00 0.00 42 999.8
20260505163945 22 0 0.0 0.0 0.00 0.00 0.00 41 1000.9
20260505163445 23 112 0.0 0.0 0.00 0.00 0.00 41 1001.7
20260505162945 23 202 0.0 0.0 0.00 0.00 0.00 40 1001.6
20260505162445 23 202 0.0 0.0 0.00 0.00 0.00 40 1001.6
20260505161945 23 202 0.0 0.0 0.00 0.00 0.00 40 1001.1
20260505161445 23 202 0.0 8.0 0.00 0.00 0.00 40 1000.1
20260505160945 23 0 0.0 3.2 0.00 0.00 0.00 40 1000.7
20260505160445 23 22 0.0 0.0 0.00 0.00 0.00 40 999.4
20260505152945 25 0 0.0 9.7 0.00 0.00 0.00 37 1000.3
20260505152445 25 270 4.8 11.3 0.00 0.00 0.00 37 1000.3
20260505151945 25 202 0.0 9.7 0.00 0.00 0.00 37 1001.0
20260505151445 -17 270 0.0 0.0 0.00 0.00 0.00 1001.7
20260505150945 -17 270 0.0 0.0 0.00 0.00 0.00 1001.4
20260505150445 26 270 8.0 8.0 0.00 0.00 0.00 37 1000.0
20260505140445 26 247 0.0 8.0 0.00 0.00 0.00 36 1000.6
20260505124945 25 22 0.0 0.0 0.00 0.00 0.00 38 1001.8
20260505124445 25 0 0.0 1.6 0.00 0.00 0.00 38 1001.4
20260505123945 25 292 0.0 0.0 0.00 0.00 0.00 38 1001.4
20260505123445 25 22 0.0 6.4 0.00 0.00 0.00 38 1001.6
20260505122945 25 90 0.0 0.0 0.00 0.00 0.00 38 1001.7
20260505122445 25 202 0.0 0.0 0.00 0.00 0.00 37 1001.7
20260505121945 25 202 3.2 8.0 0.00 0.00 0.00 37 1001.9
20260505121445 25 202 0.0 8.0 0.00 0.00 0.00 37 1002.1
20260505120945 25 22 0.0 0.0 0.00 0.00 0.00 37 1002.0
20260505120445 25 180 0.0 0.0 0.00 0.00 0.00 36 1002.0
20260505115945 25 22 0.0 8.0 0.00 0.00 0.00 37 1002.1
20260505115445 25 90 0.0 1.6 0.00 0.00 0.00 38 1002.1
20260505114945 25 22 0.0 0.0 0.00 0.00 0.00 38 1001.7
20260505114445 25 22 0.0 0.0 0.00 0.00 0.00 37 1002.2
20260505113945 25 112 0.0 3.2 0.00 0.00 0.00 37 1002.4
20260505113445 25 22 0.0 0.0 0.00 0.00 0.00 37 1002.5
20260505112945 25 112 0.0 6.4 0.00 0.00 0.00 36 1002.6
20260505112445 25 22 0.0 3.2 0.00 0.00 0.00 36 1002.6
20260505111945 25 22 0.0 3.2 0.00 0.00 0.00 38 1002.5
20260505111445 25 202 0.0 0.0 0.00 0.00 0.00 39 1002.6
20260505110945 25 202 0.0 1.6 0.00 0.00 0.00 39 1002.8
20260505110445 24 22 0.0 0.0 0.00 0.00 0.00 41 1002.6
20260505101945 23 22 0.0 0.0 0.00 0.00 0.00 40 1002.9
20260505101445 23 202 0.0 0.0 0.00 0.00 0.00 40 1003.3
20260505100945 23 22 0.0 0.0 0.00 0.00 0.00 41 1003.1
20260505100445 23 90 0.0 0.0 0.00 0.00 0.00 41 1002.7
20260505095945 23 90 0.0 6.4 0.00 0.00 0.00 41 1003.1
20260505095445 23 112 0.0 0.0 0.00 0.00 0.00 42 1003.1
20260505094945 22 180 0.0 0.0 0.00 0.00 0.00 43 1003.3
20260505094446 22 270 0.0 4.8 0.00 0.00 0.00 44 1002.9
20260505093945 22 22 0.0 0.0 0.00 0.00 0.00 45 1003.5
20260505093445 22 90 0.0 0.0 0.00 0.00 0.00 45 1003.1
20260505092945 22 112 0.0 0.0 0.00 0.00 0.00 44 1003.4
20260505092445 22 180 0.0 0.0 0.00 0.00 0.00 44 1003.6
20260505091945 22 22 0.0 0.0 0.00 0.00 0.00 44 1003.6
20260505091445 22 112 0.0 0.0 0.00 0.00 0.00 44 1003.4
20260505090945 22 180 0.0 0.0 0.00 0.00 0.00 43 1003.7
20260505090445 22 202 0.0 0.0 0.00 0.00 0.00 43 1003.8
20260505085945 22 202 0.0 0.0 0.00 0.00 0.00 43 1003.7
20260505085445 22 22 0.0 0.0 0.00 0.00 0.00 43 1003.9
20260505084945 22 90 0.0 0.0 0.00 0.00 0.00 44 1003.7
20260505084445 22 90 0.0 0.0 0.00 0.00 0.00 45 1003.5
20260505083945 21 180 0.0 0.0 0.00 0.00 0.00 45 1003.6
20260505083445 21 90 0.0 0.0 0.00 0.00 0.00 44 1003.6
20260505082945 21 22 0.0 0.0 0.00 0.00 0.00 44 1003.6
20260505082445 21 270 0.0 0.0 0.00 0.00 0.00 44 1003.6
20260505081945 21 270 0.0 0.0 0.00 0.00 0.00 44 1003.7
20260505081445 22 90 0.0 0.0 0.00 0.00 0.00 43 1003.7
20260505080945 22 90 0.0 0.0 0.00 0.00 0.00 43 1003.4
20260505080445 22 112 0.0 0.0 0.00 0.00 0.00 44 1003.6
20260505075945 22 90 0.0 0.0 0.00 0.00 0.00 44 1003.4
20260505075446 22 180 0.0 0.0 0.00 0.00 0.00 44 1003.5
20260505074945 21 112 0.0 0.0 0.00 0.00 0.00 44 1003.7
20260505074445 21 22 0.0 0.0 0.00 0.00 0.00 44 1003.9
20260505073945 21 0 0.0 0.0 0.00 0.00 0.00 45 1003.6
20260505073445 21 22 0.0 0.0 0.00 0.00 0.00 45 1003.8
20260505072945 21 0 0.0 0.0 0.00 0.00 0.00 45 1003.8
20260505072445 20 22 0.0 0.0 0.00 0.00 0.00 46 1003.9
20260505071945 20 90 0.0 0.0 0.00 0.00 0.00 46 1003.6
20260505071445 20 0 0.0 0.0 0.00 0.00 0.00 46 1003.5
20260505070945 20 22 0.0 0.0 0.00 0.00 0.00 47 1003.8
20260505070445 20 22 0.0 0.0 0.00 0.00 0.00 47 1003.4
20260505065945 19 22 0.0 0.0 0.00 0.00 0.00 47 1004.2
20260505065445 19 90 0.0 0.0 0.00 0.00 0.00 48 1004.0
20260505064945 18 22 0.0 0.0 0.00 0.00 0.00 48 1004.0
20260505064445 18 22 0.0 0.0 0.00 0.00 0.00 48 1004.1
20260505063945 18 22 0.0 0.0 0.00 0.00 0.00 49 1004.1
20260505063445 18 112 0.0 0.0 0.00 0.00 0.00 49 1004.5
20260505062945 17 90 0.0 0.0 0.00 0.00 0.00 51 1005.1
20260505062445 17 90 0.0 0.0 0.00 0.00 0.00 51 1005.0
20260505061945 17 90 0.0 0.0 0.00 0.00 0.00 51 1004.8
20260505061445 17 90 0.0 0.0 0.00 0.00 0.00 51 1003.7
20260505060945 17 90 0.0 0.0 0.00 0.00 0.00 51 1003.7
20260505060446 17 112 0.0 0.0 0.00 0.00 0.00 51 1004.2
20260505055945 17 112 0.0 0.0 0.00 0.00 0.00 51 1003.8
20260505055445 17 112 0.0 0.0 0.00 0.00 0.00 52 1003.6
20260505054945 16 112 0.0 0.0 0.00 0.00 0.00 52 1003.4
20260505054445 16 112 0.0 0.0 0.00 0.00 0.00 52 1003.8
20260505053946 16 90 0.0 0.0 0.00 0.00 0.00 51 1003.3
20260505053445 16 90 0.0 0.0 0.00 0.00 0.00 51 1003.8
20260505052945 16 180 0.0 0.0 0.00 0.00 0.00 51 1003.7
20260505052446 16 90 0.0 0.0 0.00 0.00 0.00 51 1003.7
20260505051946 16 112 0.0 0.0 0.00 0.00 0.00 51 1003.5
20260505051446 16 90 0.0 0.0 0.00 0.00 0.00 51 1003.7
20260505050946 16 22 0.0 0.0 0.00 0.00 0.00 50 1003.5
20260505050446 16 22 0.0 0.0 0.00 0.00 0.00 50 1003.6
20260505041446 16 202 0.0 0.0 0.00 0.00 0.00 48 1002.9
20260505040946 15 202 0.0 0.0 0.00 0.00 0.00 48 1003.6
20260505040446 15 202 0.0 0.0 0.00 0.00 0.00 48 1003.4
20260505035946 15 202 0.0 0.0 0.00 0.00 0.00 47 1003.4
20260505035446 15 202 0.0 0.0 0.00 0.00 0.00 47 1003.5
20260505034946 16 202 0.0 0.0 0.00 0.00 0.00 47 1003.3
20260505034446 16 202 0.0 0.0 0.00 0.00 0.00 47 1003.6
20260505033946 16 202 0.0 0.0 0.00 0.00 0.00 47 1003.7
20260505033446 16 292 0.0 0.0 0.00 0.00 0.00 46 1003.5
20260505032946 16 0 0.0 0.0 0.00 0.00 0.00 46 1003.6
20260505032446 16 90 0.0 0.0 0.00 0.00 0.00 46 1003.7
20260505031946 16 90 0.0 0.0 0.00 0.00 0.00 46 1004.0
20260505031446 16 112 0.0 0.0 0.00 0.00 0.00 46 1003.4
20260505030946 16 112 0.0 0.0 0.00 0.00 0.00 46 1003.6
20260505030446 16 112 0.0 0.0 0.00 0.00 0.00 46 1003.7
20260505025946 16 112 0.0 0.0 0.00 0.00 0.00 46 1003.7
20260505025446 16 180 0.0 0.0 0.00 0.00 0.00 45 1003.5
20260505024946 16 180 0.0 0.0 0.00 0.00 0.00 45 1003.6
20260505024446 16 112 0.0 0.0 0.00 0.00 0.00 45 1003.9
20260505023946 16 112 0.0 0.0 0.00 0.00 0.00 45 1004.1
20260505023446 16 112 0.0 0.0 0.00 0.00 0.00 45 1004.0
20260505022946 16 112 0.0 0.0 0.00 0.00 0.00 45 1003.9
20260505022446 16 112 0.0 0.0 0.00 0.00 0.00 45 1003.8
20260505021946 16 112 0.0 0.0 0.00 0.00 0.00 45 1004.0
20260505021446 16 112 0.0 0.0 0.00 0.00 0.00 45 1004.1
20260505020946 16 90 0.0 0.0 0.00 0.00 0.00 44 1003.9
20260505020446 17 90 0.0 0.0 0.00 0.00 0.00 44 1003.4
20260505015946 17 90 0.0 0.0 0.00 0.00 0.00 44 1003.9
20260505015446 17 90 0.0 0.0 0.00 0.00 0.00 44 1004.1
20260505014946 17 90 0.0 0.0 0.00 0.00 0.00 44 1004.1
20260505014446 17 22 0.0 0.0 0.00 0.00 0.00 44 1004.2
20260505013946 17 22 0.0 0.0 0.00 0.00 0.00 44 1003.9
20260505013446 17 90 0.0 0.0 0.00 0.00 0.00 45 1003.9
20260505012946 17 90 0.0 0.0 0.00 0.00 0.00 45 1004.4
20260505012446 17 22 0.0 0.0 0.00 0.00 0.00 45 1004.6
20260505011946 17 22 0.0 0.0 0.00 0.00 0.00 45 1004.6
20260505011446 17 22 0.0 0.0 0.00 0.00 0.00 45 1004.5
20260505010946 17 22 0.0 0.0 0.00 0.00 0.00 45 1004.3
20260505010446 17 90 0.0 0.0 0.00 0.00 0.00 45 1003.9
20260505005946 17 22 0.0 0.0 0.00 0.00 0.00 45 1004.2
20260505005446 17 22 0.0 0.0 0.00 0.00 0.00 45 1004.5
20260505004946 17 22 0.0 0.0 0.00 0.00 0.00 44 1004.5
20260505004446 17 90 0.0 0.0 0.00 0.00 0.00 44 1004.7
20260505003946 17 90 0.0 0.0 0.00 0.00 0.00 44 1004.8
20260505003446 17 90 0.0 0.0 0.00 0.00 0.00 44 1004.6
20260505002946 17 22 0.0 0.0 0.00 0.00 0.00 44 1004.7
20260505002446 17 22 0.0 0.0 0.00 0.00 0.00 44 1004.7
20260505001946 18 22 0.0 0.0 0.00 0.00 0.00 44 1004.7
20260505001446 18 22 0.0 0.0 0.00 0.00 0.00 43 1005.0
20260505000946 18 22 0.0 0.0 0.00 0.00 0.00 43 1004.8
20260505000446 18 90 0.0 0.0 0.00 0.00 0.00 43 1004.6
20260504235946 18 22 0.0 0.0 0.00 0.00 0.00 43 1005.0
20260504235446 18 22 0.0 0.0 0.00 0.00 0.00 43 1004.9
20260504234946 18 22 0.0 0.0 0.00 0.00 0.00 43 1005.1
20260504234446 18 90 0.0 0.0 0.00 0.00 0.00 43 1005.1
20260504233946 18 90 0.0 0.0 0.00 0.00 0.00 43 1005.4
20260504233446 18 90 0.0 0.0 0.00 0.00 0.00 43 1005.1
20260504232946 18 112 0.0 0.0 0.00 0.00 0.00 43 1005.2
20260504232446 18 22 0.0 0.0 0.00 0.00 0.00 42 1005.3
20260504231946 18 112 0.0 0.0 0.00 0.00 0.00 42 1005.7
20260504231446 18 112 0.0 0.0 0.00 0.00 0.00 42 1005.5
20260504230946 18 180 0.0 0.0 0.00 0.00 0.00 42 1005.6
20260504230446 19 180 0.0 0.0 0.00 0.00 0.00 42 1005.5
20260504225946 19 180 0.0 0.0 0.00 0.00 0.00 42 1005.9
20260504225446 19 180 0.0 0.0 0.00 0.00 0.00 42 1005.9
20260504224946 19 180 0.0 0.0 0.00 0.00 0.00 42 1005.7
20260504224446 19 180 0.0 0.0 0.00 0.00 0.00 42 1005.7